Volver al catálogo

STARLINK-11394

ActivoComunicacionesVLEO
NORAD 62218·PAYLOAD·🇺🇸 United States

Lanzado Dec 5, 2024 desde Vandenberg Space Force Base

Loading…

Próximos Pases (próximas 24 horas)

TLE

ActualizadoSource: CelesTrak SupGP

Época: Sep 15, 2026, 02:09 UTC

1 62218C 24231A   26258.09006944  .00007956  00000+0  65470-4 0  2586
2 62218  53.1575 247.6004 0001222  88.9324  98.5786 15.69728589    15

Sigue STARLINK-11394 en tiempo real con AllMySat

Download on the App Store